SCP
0 0 0 0 0 1 0 0 0 0 0 0 0 0 0 0 0 1 1 2 3 3 2 1 1 1 1 1 1 1 0 1 1 1 1 1 1 1 0 0 0 0 0 0 0 0 0 0 0
0 0 0 0 0 0 0 0 0 0 0 0 0 0 0 0 0 1 1 3 3 2 1 1 1 1 1 1 1 1 1 1 1 1 1 1 1 1 1 1 0 0 0 0 0 0 0 0 0
0 0 0 0 0 0 0 0 0 0 0 0 0 0 0 0 0 1 2 3 3 2 1 1 1 1 1 1 1 1 1 1 1 1 1 1 1 1 1 1 1 0 0 1 1 1 0 0 0
0 0 0 0 0 0 0 0 0 0 0 0 1 1 1 0 0 1 2 2 2 2 1 1 1 1 1 1 1 1 1 1 1 1 1 1 1 1 1 1 1 1 1 1 1 1 1 1 0
0 0 0 0 0 0 0 0 0 0 0 1 1 1 1 0 0 1 1 2 2 2 2 2 1 1 1 1 1 1 1 1 1 1 1 1 1 1 1 1 1 1 1 1 1 1 1 1 1
0 0 0 0 0 0 0 0 0 0 0 1 1 2 1 1 0 1 1 2 2 3 3 2 1 1 1 1 1 1 1 1 1 1 1 1 1 1 1 1 1 1 1 1 1 1 1 1 1
0 0 0 0 0 0 0 0 0 0 1 1 1 2 2 1 1 1 1 2 3 3 3 2 1 1 1 1 1 1 1 1 1 1 1 1 1 1 1 1 2 1 1 2 2 2 2 1 1
0 0 0 0 0 0 0 0 0 1 1 2 2 3 3 2 1 1 1 2 3 3 3 2 2 2 2 2 2 2 1 1 2 1 1 1 1 1 2 2 2 2 2 2 2 2 2 2 2
-0 -0 -0 0 0 0 0 0 0 1 2 3 3 4 3 2 1 1 2 2 3 3 3 3 3 3 2 2 2 2 2 2 2 2 2 2 1 2 2 2 3 3 3 3 3 3 3 3 2
-0 -0 0 0 0 0 0 0 0 1 3 4 5 5 4 3 3 3 3 3 4 4 5 4 4 4 4 3 3 2 2 2 2 2 3 2 2 2 2 3 3 3 3 3 3 4 3 3 2
-0 -0 0 0 0 0 0 1 1 2 4 5 5 6 6 6 7 7 6 6 6 7 7 7 6 6 5 4 4 3 3 3 3 3 4 4 3 2 2 3 4 4 4 3 3 4 3 3 2
0 0 0 0 0 0 1 1 2 3 4 5 6 7 9 11 12 12 12 11 10 9 9 8 7 7 6 5 5 4 4 4 4 4 4 4 4 3 3 4 5 5 5 4 3 3 3 3 3
0 0 0 0 0 1 1 2 2 3 4 5 6 8 11 13 15 15 15 14 12 10 9 8 7 7 6 5 5 5 4 4 4 4 4 4 4 4 4 4 6 6 6 5 4 3 3 3 3
0 0 0 0 0 1 1 2 2 3 3 4 5 7 9 11 13 13 13 12 10 9 7 6 6 5 4 4 4 4 4 4 4 4 4 4 4 4 4 4 5 6 6 6 4 4 4 4 4
0 0 0 0 0 1 1 1 2 2 2 3 3 4 5 7 8 9 9 8 7 6 5 4 4 3 3 3 3 3 3 4 4 4 4 4 4 4 4 4 4 5 6 6 5 4 4 4 4
0 0 0 0 0 0 1 1 2 2 2 2 2 2 3 3 4 5 5 5 4 4 4 4 3 3 3 3 3 3 3 3 4 3 3 3 3 3 3 3 4 5 6 5 5 4 3 3 3
0 0 0 0 0 0 1 2 2 2 2 2 2 1 1 2 2 2 3 3 2 3 3 3 3 3 3 2 2 2 3 3 3 3 3 3 3 3 3 3 3 4 5 4 4 3 3 2 2
0 0 0 0 0 1 1 2 2 2 2 2 2 1 1 1 1 1 1 2 2 2 3 3 3 3 2 2 2 2 2 2 3 3 3 3 3 2 2 2 2 3 3 3 2 2 2 2 2
0 0 0 1 1 1 1 2 2 2 2 2 1 1 1 1 1 1 1 1 2 2 2 3 2 2 2 2 2 2 2 2 2 3 3 3 3 2 2 2 2 2 2 2 1 1 1 1 1
0 0 0 1 1 1 1 2 2 2 2 1 1 1 1 1 1 1 1 1 1 2 2 2 2 3 3 2 2 2 2 1 2 3 3 3 2 2 2 2 2 2 2 2 1 1 1 1 1
0 0 0 1 1 1 1 2 2 2 1 1 1 1 1 1 1 1 1 1 1 1 1 2 2 3 3 2 1 1 1 1 1 2 2 2 2 2 2 2 2 2 2 2 1 1 1 1 1
0 0 0 0 1 1 1 1 2 2 1 1 1 1 1 1 1 1 1 1 1 1 1 1 2 2 2 2 1 0 0 0 0 1 1 1 2 1 1 1 1 2 2 2 2 1 1 1 1
0 0 0 0 0 1 1 1 1 1 1 1 1 1 1 1 1 1 1 1 0 0 0 1 1 1 1 1 0 0 0 0 0 0 0 1 1 1 1 1 1 1 2 2 2 2 1 1 1
0 0 0 0 1 1 0 1 1 1 1 2 2 1 1 1 1 1 1 0 0 0 0 0 0 0 0 0 0 0 0 0 0 0 0 0 0 0 0 1 1 1 1 1 2 2 1 1 1
0 0 0 1 1 1 1 1 1 1 2 2 2 1 1 1 1 1 1 0 0 0 0 0 0 0 0 0 0 0 0 0 0 0 0 0 0 0 0 1 1 1 1 1 1 1 2 2 2
0 0 0 0 1 1 1 1 1 1 1 1 1 1 1 0 0 0 0 0 0 0 0 0 0 0 0 0 0 0 0 0 0 0 0 0 0 0 0 1 1 1 1 1 1 1 1 2 2
0 0 0 0 0 0 1 1 1 1 1 1 1 0 0 0 0 0 0 0 0 0 0 0 0 0 0 0 0 0 0 0 0 0 0 0 0 0 0 1 1 1 1 1 1 1 1 1 2
0 0 0 0 0 0 1 1 1 1 0 0 0 0 0 0 0 0 0 0 0 0 0 0 0 0 0 0 0 0 0 0 0 0 0 0 0 0 0 0 1 1 1 1 1 1 1 1 1
0 0 0 0 0 0 0 1 1 0 0 0 0 0 0 0 0 0 0 0 0 0 0 0 0 0 0 0 0 0 0 0 0 0 0 0 0 0 0 0 0 0 1 1 1 1 1 1 1
0 0 0 0 0 0 0 0 0 0 0 0 0 0 0 0 0 0 0 0 0 0 0 0 0 0 0 0 0 0 0 0 0 0 0 0 0 0 0 0 0 0 0 1 1 1 1 1 1
Wind_Speed
12 12 10 8 7 6 6 7 11 10 10 8 7 9 17 17 12 9 10 18 24 21 19 18 16 16 15 13 12 12 12 12 12 11 11 10 10 10 9 9 8 7 7 7 8 9 9 8 8
12 13 10 8 7 4 2 8 10 8 7 3 6 12 17 16 12 12 12 17 23 20 17 16 17 15 14 13 12 11 11 11 11 11 10 10 10 9 9 9 8 7 7 7 8 8 9 9 8
13 14 8 8 10 3 5 9 8 6 7 5 9 14 13 11 12 10 12 18 21 18 16 17 17 16 14 13 12 11 11 10 10 10 10 9 9 9 9 8 8 8 7 7 8 8 9 9 9
9 10 8 11 13 3 6 8 7 6 6 5 9 12 11 8 10 13 14 19 21 18 17 17 17 16 14 13 12 11 10 10 9 9 9 9 9 8 8 9 8 8 8 8 8 9 9 9 9
10 8 12 15 12 2 6 6 5 6 5 7 11 15 12 11 14 14 14 20 18 19 17 17 16 15 14 13 12 11 10 10 9 9 9 8 8 8 9 9 9 9 9 9 9 9 9 9 8
8 9 12 13 7 2 5 6 7 7 8 10 9 15 10 11 12 12 13 15 18 20 18 15 16 15 13 12 11 11 10 10 9 9 9 9 9 9 9 10 10 10 9 9 10 10 9 9 9
10 12 15 18 14 3 5 5 8 9 10 9 8 11 10 10 10 11 10 11 17 21 18 14 14 13 12 12 12 11 11 11 10 10 10 10 10 10 10 10 11 11 10 10 10 11 10 10 9
10 12 17 17 15 4 7 5 8 9 9 11 11 10 10 8 9 10 9 9 12 18 17 15 14 13 12 12 13 13 13 12 11 11 11 12 12 12 12 11 12 12 12 12 12 11 11 11 10
14 12 15 15 11 6 7 7 7 5 9 15 14 11 11 11 10 9 9 9 9 11 11 11 12 12 11 12 13 13 12 11 11 10 12 11 9 11 11 15 15 16 15 14 14 13 13 12 12
12 12 17 13 9 8 7 5 6 4 10 13 9 10 8 9 8 8 9 9 8 6 7 6 7 6 3 3 9 8 9 9 10 8 10 9 8 8 10 14 20 20 19 17 16 15 14 12 9
15 16 17 15 9 7 6 3 5 7 12 13 11 9 6 8 7 7 8 7 8 8 9 8 8 8 8 5 2 1 3 4 9 9 7 6 6 6 7 4 9 12 15 11 12 13 10 10 9
16 15 14 12 9 6 6 3 10 14 11 11 11 10 10 13 13 12 11 11 11 11 11 12 11 10 9 8 6 4 4 2 1 2 4 3 3 4 4 4 3 6 6 8 8 8 11 11 11
14 13 12 10 6 3 0 5 11 12 11 11 13 16 16 15 14 14 14 14 14 13 12 11 11 10 8 6 5 6 5 4 4 2 1 2 3 4 5 5 5 6 6 7 7 7 9 10 10
11 10 8 6 3 3 5 8 9 10 10 11 11 12 13 13 14 14 14 13 12 11 11 9 9 8 7 5 4 4 5 3 4 2 3 3 3 4 5 6 6 7 6 5 6 7 7 7 7
11 12 10 7 6 8 10 10 9 9 9 10 9 9 11 11 12 12 11 10 10 9 9 8 6 7 6 5 6 5 5 5 4 3 4 4 4 5 5 6 6 6 6 6 5 6 5 6 6
13 15 10 1 2 5 8 9 9 7 9 9 8 8 9 9 10 9 9 8 8 8 7 7 8 8 6 5 4 4 4 4 4 3 3 3 4 5 5 5 6 5 4 4 5 6 6 6 6
9 6 2 5 6 8 4 11 10 9 11 9 8 9 9 9 9 9 9 9 8 7 5 5 6 7 7 6 5 5 4 3 3 3 2 3 4 4 4 4 4 3 3 4 6 5 5 7 7
5 5 3 7 9 9 6 11 11 10 10 10 10 9 9 9 9 8 8 8 7 6 5 5 5 5 6 5 5 4 5 4 4 3 1 3 4 4 3 3 3 2 2 3 4 5 5 5 5
10 13 11 10 5 2 7 11 12 11 10 11 10 10 9 10 9 7 6 6 6 4 4 3 4 4 4 4 6 6 5 5 5 3 2 3 4 4 3 3 2 2 2 2 3 3 4 4 4
10 6 5 3 3 4 5 9 11 10 11 11 11 11 10 10 8 6 4 4 4 4 3 3 5 6 6 5 6 5 6 6 5 3 3 3 4 4 5 3 3 3 2 3 2 2 2 2 3
8 11 7 3 7 10 7 6 9 8 10 10 10 10 9 8 6 4 2 2 3 4 4 5 4 5 6 7 6 7 6 6 5 5 4 3 5 5 4 4 3 3 3 3 3 2 2 2 2
6 7 11 10 5 3 4 1 3 5 6 9 10 9 7 5 4 2 1 3 5 6 5 4 4 4 5 6 7 10 9 8 8 6 6 7 7 6 4 3 3 3 3 3 4 4 2 2 3
4 7 3 10 10 10 11 5 4 5 8 8 9 9 7 5 2 0 2 3 5 6 6 4 3 3 4 5 7 8 8 8 8 8 9 8 7 7 5 2 1 3 3 3 3 3 3 2 3
8 4 5 13 10 6 3 4 7 9 11 11 9 7 5 3 2 2 3 3 3 5 5 5 4 4 4 5 6 7 8 8 10 10 10 7 5 4 5 3 0 2 3 3 3 3 4 4 5
10 8 3 3 1 7 9 6 5 8 8 8 7 6 3 1 2 3 4 5 5 5 5 5 5 5 5 5 5 5 7 8 10 10 8 8 7 6 6 6 2 2 2 3 3 3 3 3 5
8 7 6 8 5 3 7 4 3 8 8 5 3 2 0 3 4 6 7 7 6 7 6 6 5 5 5 5 5 5 7 7 6 8 9 9 8 7 7 6 5 4 4 4 3 2 3 2 2
9 9 12 10 9 2 8 9 7 6 6 3 1 2 3 5 7 9 9 9 8 7 6 6 5 5 5 6 6 6 5 6 8 8 9 8 7 9 9 9 8 6 6 5 4 3 4 3 3
8 8 8 8 8 9 6 9 6 4 3 5 6 6 7 8 9 11 10 10 9 8 6 6 6 6 6 6 6 8 7 6 6 8 8 8 8 8 8 9 8 8 7 7 6 5 5 5 4
8 9 8 8 9 8 7 8 8 5 5 6 7 8 9 10 11 10 9 9 9 10 9 8 7 7 6 6 6 6 7 7 7 7 7 7 7 8 8 9 9 9 9 8 7 7 7 7 6
3 5 7 7 8 8 7 7 4 3 5 6 7 7 9 9 9 10 10 9 9 10 10 9 9 9 7 7 6 7 7 7 8 8 7 7 7 8 9 9 9 10 10 9 8 9 10 9 8
Wind_Direction
179 192 205 223 238 241 295 23 39 36 43 45 44 43 60 51 46 74 86 100 112 122 131 137 137 137 135 132 131 135 143 149 150 148 147 147 146 146 147 147 148 149 146 141 138 135 132 128 121
193 201 212 237 242 247 342 34 37 41 47 45 68 60 68 63 68 90 96 112 118 126 138 138 139 139 139 137 137 139 143 147 150 151 151 151 152 153 156 158 161 164 158 153 149 145 142 137 134
228 232 249 248 252 267 25 37 21 41 52 27 77 66 56 65 76 95 119 126 123 129 132 132 143 142 143 143 144 145 145 147 150 154 157 159 161 164 167 168 172 175 172 168 164 158 154 151 149
238 230 237 251 271 349 42 33 1 38 72 23 74 83 73 57 86 110 135 125 120 129 130 138 144 145 147 150 152 153 153 154 157 161 166 170 173 176 178 178 182 184 184 180 174 166 164 164 163
241 256 248 260 270 35 51 31 349 24 59 59 84 96 92 90 102 127 138 123 135 133 130 140 146 147 151 155 158 161 163 165 169 173 177 182 186 190 193 192 193 194 192 191 181 174 172 173 177
253 254 269 286 298 82 54 27 4 20 47 41 72 106 100 115 122 132 130 139 135 127 130 137 146 151 156 161 165 169 173 176 180 184 187 192 197 201 205 205 203 202 202 193 186 184 182 185 189
257 278 286 291 298 319 73 16 18 18 47 34 42 99 111 113 121 126 135 136 128 125 130 143 150 156 163 170 175 179 184 188 191 194 196 201 206 210 212 211 209 208 207 199 193 193 195 197 201
266 284 285 283 285 312 68 34 37 21 42 43 30 79 106 132 138 125 133 119 113 125 136 149 158 159 170 178 185 188 192 196 200 204 206 208 213 217 218 216 211 210 208 205 204 205 207 207 209
264 266 271 279 312 353 25 10 12 29 60 61 39 58 113 133 125 131 125 112 101 115 135 152 152 159 180 182 180 188 198 204 207 213 218 219 222 220 216 221 213 209 210 210 212 214 214 214 216
240 258 269 292 336 332 343 348 324 322 59 56 52 53 85 118 129 137 124 121 125 112 102 93 109 133 170 179 152 184 197 196 205 213 206 211 227 239 234 212 213 211 211 212 215 218 218 216 219
245 258 278 299 318 317 313 338 23 7 49 28 24 35 57 86 76 78 93 96 102 92 66 61 57 53 35 29 75 224 211 186 199 219 216 212 226 242 255 237 207 211 212 213 214 216 218 217 218
247 260 278 289 301 306 303 334 66 53 44 28 27 38 55 69 65 64 66 66 70 65 56 49 48 44 34 22 1 346 354 359 311 204 218 227 241 257 265 268 234 207 210 212 216 208 212 221 221
246 253 262 272 281 274 166 69 78 67 51 46 47 47 49 55 58 59 60 61 57 55 50 46 43 42 28 15 351 353 335 325 317 321 261 252 253 258 264 266 257 241 231 221 221 224 218 219 226
273 263 255 253 240 169 136 99 87 80 73 65 58 54 54 55 54 55 53 54 54 49 42 35 39 40 25 3 349 325 312 309 310 328 337 316 286 272 268 267 263 255 246 241 227 231 238 231 227
256 258 241 208 181 152 139 96 86 92 98 89 80 71 64 61 61 61 59 57 55 52 42 24 41 41 22 357 344 325 315 325 332 339 329 316 302 296 286 275 267 258 252 253 248 242 243 244 235
245 240 231 113 351 184 196 112 111 130 115 101 97 90 82 74 73 75 75 68 64 58 51 36 30 24 4 359 338 319 327 330 319 314 317 331 331 317 299 280 273 266 257 249 248 242 242 242 241
250 284 7 17 321 263 203 126 136 147 126 118 111 104 99 94 86 83 83 79 75 68 54 47 43 23 354 349 334 328 323 318 305 307 326 339 324 314 308 300 291 283 264 252 252 243 235 238 238
7 359 337 257 241 233 136 127 142 148 136 127 121 117 113 105 98 98 98 100 92 80 63 40 34 29 350 353 338 341 332 334 321 316 347 337 315 311 302 291 288 287 280 267 255 252 238 235 234
207 199 202 221 260 272 154 154 155 150 143 131 130 127 120 112 111 108 104 99 97 85 69 53 25 23 350 2 339 326 325 329 315 307 2 343 327 325 299 300 296 263 254 266 278 261 246 236 229
247 243 160 150 317 285 207 164 150 155 143 140 140 139 136 130 127 124 119 97 84 76 48 31 27 11 356 360 319 307 328 318 302 326 344 336 339 326 313 298 286 264 254 263 277 267 238 239 223
323 346 326 243 220 236 228 174 145 140 135 144 142 139 135 137 132 121 82 49 36 36 24 29 30 17 11 351 330 339 329 314 320 333 321 345 338 315 308 303 293 280 260 252 244 247 247 252 266
336 320 297 294 267 274 34 325 134 132 158 161 147 144 143 140 149 147 333 8 9 10 8 27 31 35 15 355 340 334 322 321 328 327 327 332 319 301 292 298 311 296 279 261 242 223 212 244 266
250 223 328 12 13 25 41 30 285 204 193 180 164 161 156 164 184 229 321 348 2 359 355 357 14 23 7 351 334 329 323 326 322 322 312 306 296 285 282 276 317 320 303 292 276 265 229 227 248
311 273 45 39 28 347 231 191 229 211 197 172 165 162 164 184 243 287 311 344 8 352 348 347 357 1 359 344 327 318 320 320 314 303 295 297 298 305 312 312 35 322 328 325 305 287 258 235 247
316 308 341 13 168 237 216 200 216 175 153 146 153 161 168 209 271 300 342 356 356 349 355 353 353 353 347 328 317 319 315 306 296 301 324 332 323 319 317 321 324 304 303 303 302 305 292 258 244
299 314 323 313 298 188 170 191 132 112 107 115 117 110 263 304 336 353 359 2 358 357 360 353 348 341 333 325 319 311 295 301 316 329 326 311 300 300 304 316 311 294 279 273 269 283 283 284 267
336 342 337 319 318 357 146 132 120 131 137 126 40 333 336 1 0 359 1 357 359 358 356 348 343 337 331 322 311 296 317 332 321 312 302 304 311 312 320 325 312 296 278 262 251 246 251 254 261
342 339 354 334 345 345 65 108 123 129 51 19 355 357 10 7 2 1 355 351 353 346 346 346 341 336 328 325 328 328 334 316 310 310 308 303 301 303 305 301 299 295 286 271 251 242 236 222 222
352 8 2 342 358 341 353 78 95 63 32 5 355 8 11 7 359 350 347 350 346 340 342 343 340 336 332 332 331 324 316 313 306 299 301 308 310 310 305 301 297 294 289 280 265 251 249 234 221
349 17 359 352 344 321 329 96 80 50 44 28 11 11 14 5 352 345 345 347 341 338 339 338 338 330 330 331 325 317 313 309 306 307 308 304 300 299 299 298 296 292 289 285 277 264 254 242 231